STARLINK BJ

Last updated on Jan. 16, 2020, 12:02 a.m. UTC

1 44970U 20001BJ  20015.58334491  .00116152  00000-0  53464-3 0  9993
2 44970  53.0003 354.7476 0000964 100.0533 330.0130 15.82776597  1350

Satellite is not in orbit.